| time (UTC) | temp C | wind direction | speed KPH | gust KPH | rain 1hr cm | rain 24hr cm | rain mn cm | humidity % | barometer mb |
| 20260510174005 | 16 | 257 | 0.0 | 0.0 | 0.00 | 0.00 | 0.00 | 35 | 1033.9 |
| 20260510173447 | 16 | 318 | 0.0 | 0.0 | 0.00 | 0.00 | 0.00 | 38 | 1034.0 |
| 20260510172951 | 15 | 327 | 0.0 | 3.2 | 0.00 | 0.00 | 0.00 | 40 | 1033.9 |
| 20260510172443 | 15 | 13 | 0.0 | 3.2 | 0.00 | 0.00 | 0.00 | 39 | 1033.9 |
| 20260510171945 | 15 | 247 | 0.0 | 1.6 | 0.00 | 0.00 | 0.00 | 39 | 1033.9 |
| 20260510171416 | 15 | 317 | 0.0 | 1.6 | 0.00 | 0.00 | 0.00 | 40 | 1033.9 |
| 20260510170915 | 15 | 30 | 0.0 | 4.8 | 0.00 | 0.00 | 0.00 | 38 | 1033.9 |
| 20260510170401 | 15 | 39 | 0.0 | 4.8 | 0.00 | 0.00 | 0.00 | 40 | 1033.9 |
| 20260510165905 | 16 | 19 | 0.0 | 1.6 | 0.00 | 0.00 | 0.00 | 38 | 1033.9 |
| 20260510165615 | 15 | 338 | 0.0 | 1.6 | 0.00 | 0.00 | 0.00 | 39 | 1033.9 |
| 20260510164825 | 15 | 252 | 0.0 | 3.2 | 0.00 | 0.00 | 0.00 | 40 | 1034.0 |
| 20260510164259 | 15 | 302 | 0.0 | 3.2 | 0.00 | 0.00 | 0.00 | 44 | 1034.0 |
| 20260510164014 | 15 | 310 | 0.0 | 8.0 | 0.00 | 0.00 | 0.00 | 41 | 1034.1 |
| 20260510163243 | 14 | 355 | 0.0 | 8.0 | 0.00 | 0.00 | 0.00 | 42 | 1034.0 |
| 20260510162740 | 14 | 22 | 0.0 | 1.6 | 0.00 | 0.00 | 0.00 | 41 | 1034.0 |
| 20260510162243 | 14 | 225 | 0.0 | 0.0 | 0.00 | 0.00 | 0.00 | 39 | 1034.0 |
| 20260510161724 | 15 | 240 | 0.0 | 0.0 | 0.00 | 0.00 | 0.00 | 38 | 1034.0 |
| 20260510161223 | 15 | 323 | 0.0 | 0.0 | 0.00 | 0.00 | 0.00 | 38 | 1033.9 |
| 20260510160654 | 15 | 66 | 0.0 | 0.0 | 0.00 | 0.00 | 0.00 | 40 | 1033.9 |
| 20260510160153 | 15 | 5 | 0.0 | 0.0 | 0.00 | 0.00 | 0.00 | 44 | 1033.8 |
| 20260510155627 | 14 | 5 | 0.0 | 0.0 | 0.00 | 0.00 | 0.00 | 41 | 1033.7 |
| 20260510155106 | 14 | 36 | 0.0 | 0.0 | 0.00 | 0.00 | 0.00 | 40 | 1033.6 |
| 20260510154827 | 13 | 9 | 0.0 | 9.7 | 0.00 | 0.00 | 0.00 | 41 | 1033.7 |
| 20260510154041 | 13 | 22 | 0.0 | 9.7 | 0.00 | 0.00 | 0.00 | 46 | 1033.7 |
| 20260510153539 | 13 | 291 | 0.0 | 0.0 | 0.00 | 0.00 | 0.00 | 45 | 1033.7 |
| 20260510153022 | 13 | 16 | 0.0 | 0.0 | 0.00 | 0.00 | 0.00 | 45 | 1033.6 |
| 20260510152521 | 13 | 349 | 0.0 | 1.6 | 0.00 | 0.00 | 0.00 | 44 | 1033.5 |
| 20260510152002 | 13 | 335 | 0.0 | 6.4 | 0.00 | 0.00 | 0.00 | 44 | 1033.6 |
| 20260510151501 | 13 | 337 | 0.0 | 6.4 | 0.00 | 0.00 | 0.00 | 46 | 1033.5 |
| 20260510150946 | 12 | 15 | 0.0 | 6.4 | 0.00 | 0.00 | 0.00 | 46 | 1033.5 |
| 20260510150447 | 12 | 53 | 0.0 | 1.6 | 0.00 | 0.00 | 0.00 | 47 | 1033.6 |
| 20260510145918 | 11 | 13 | 0.0 | 1.6 | 0.00 | 0.00 | 0.00 | 50 | 1033.6 |
| 20260510145417 | 11 | 34 | 0.0 | 1.6 | 0.00 | 0.00 | 0.00 | 47 | 1033.5 |
| 20260510144858 | 11 | 226 | 0.0 | 0.0 | 0.00 | 0.00 | 0.00 | 49 | 1033.6 |
| 20260510144553 | 11 | 226 | 0.0 | 0.0 | 0.00 | 0.00 | 0.00 | 49 | 1033.6 |
| 20260510143825 | 11 | 226 | 0.0 | 0.0 | 0.00 | 0.00 | 0.00 | 49 | 1033.5 |
| 20260510143258 | 11 | 30 | 0.0 | 0.0 | 0.00 | 0.00 | 0.00 | 52 | 1033.5 |
| 20260510142759 | 10 | 12 | 0.0 | 0.0 | 0.00 | 0.00 | 0.00 | 52 | 1033.5 |
| 20260510142238 | 10 | 32 | 0.0 | 0.0 | 0.00 | 0.00 | 0.00 | 53 | 1033.5 |
| 20260510141720 | 10 | 32 | 0.0 | 0.0 | 0.00 | 0.00 | 0.00 | 51 | 1033.4 |
| 20260510141142 | 10 | 31 | 0.0 | 0.0 | 0.00 | 0.00 | 0.00 | 54 | 1033.5 |
| 20260510140916 | 10 | 32 | 0.0 | 0.0 | 0.00 | 0.00 | 0.00 | 55 | 1033.4 |
| 20260510140404 | 9 | 5 | 0.0 | 0.0 | 0.00 | 0.00 | 0.00 | 56 | 1033.4 |
| 20260510135629 | 9 | 5 | 0.0 | 0.0 | 0.00 | 0.00 | 0.00 | 57 | 1033.3 |
| 20260510135111 | 9 | 5 | 0.0 | 0.0 | 0.00 | 0.00 | 0.00 | 55 | 1033.3 |
| 20260510134549 | 9 | 33 | 0.0 | 0.0 | 0.00 | 0.00 | 0.00 | 56 | 1033.4 |
| 20260510134012 | 9 | 36 | 0.0 | 0.0 | 0.00 | 0.00 | 0.00 | 57 | 1033.4 |
| 20260510133514 | 8 | 9 | 0.0 | 0.0 | 0.00 | 0.00 | 0.00 | 58 | 1033.3 |
| 20260510133222 | 8 | 9 | 0.0 | 0.0 | 0.00 | 0.00 | 0.00 | 59 | 1033.3 |
| 20260510132450 | 8 | 9 | 0.0 | 0.0 | 0.00 | 0.00 | 0.00 | 58 | 1033.3 |
| 20260510131938 | 8 | 5 | 0.0 | 0.0 | 0.00 | 0.00 | 0.00 | 59 | 1033.2 |
| 20260510131440 | 8 | 268 | 0.0 | 0.0 | 0.00 | 0.00 | 0.00 | 59 | 1033.2 |
| 20260510131416 | 8 | 267 | 0.0 | 0.0 | 0.00 | 0.00 | 0.00 | 60 | 1033.1 |
| 20260510130410 | 8 | 267 | 0.0 | 0.0 | 0.00 | 0.00 | 0.00 | 61 | 1033.1 |
| 20260510125910 | 7 | 267 | 0.0 | 0.0 | 0.00 | 0.00 | 0.00 | 63 | 1033.1 |
| 20260510125409 | 7 | 267 | 0.0 | 0.0 | 0.00 | 0.00 | 0.00 | 63 | 1033.0 |
| 20260510125404 | 7 | 267 | 0.0 | 0.0 | 0.00 | 0.00 | 0.00 | 63 | 1033.1 |
| 20260510124348 | 7 | 267 | 0.0 | 0.0 | 0.00 | 0.00 | 0.00 | 63 | 1033.0 |
| 20260510124118 | 7 | 267 | 0.0 | 0.0 | 0.00 | 0.00 | 0.00 | 63 | 1033.0 |
| 20260510123347 | 7 | 267 | 0.0 | 0.0 | 0.00 | 0.00 | 0.00 | 64 | 1032.9 |
| 20260510122847 | 7 | 240 | 0.0 | 0.0 | 0.00 | 0.00 | 0.00 | 64 | 1032.9 |
| 20260510122344 | 7 | 240 | 0.0 | 0.0 | 0.00 | 0.00 | 0.00 | 65 | 1032.8 |
| 20260510121840 | 6 | 240 | 0.0 | 0.0 | 0.00 | 0.00 | 0.00 | 64 | 1032.8 |
| 20260510121317 | 6 | 240 | 0.0 | 0.0 | 0.00 | 0.00 | 0.00 | 64 | 1032.6 |
| 20260510120810 | 6 | 240 | 0.0 | 0.0 | 0.00 | 0.00 | 0.00 | 64 | 1032.5 |
| 20260510120247 | 6 | 240 | 0.0 | 0.0 | 0.00 | 0.00 | 0.00 | 64 | 1032.5 |
| 20260510115719 | 6 | 240 | 0.0 | 0.0 | 0.00 | 0.00 | 0.00 | 63 | 1032.4 |
| 20260510115157 | 6 | 240 | 0.0 | 0.0 | 0.00 | 0.00 | 0.00 | 63 | 1032.2 |
| 20260510114909 | 6 | 240 | 0.0 | 0.0 | 0.00 | 0.00 | 0.00 | 62 | 1032.2 |
| 20260510114137 | 6 | 240 | 0.0 | 0.0 | 0.00 | 0.00 | 0.00 | 62 | 1032.2 |
| 20260510113638 | 6 | 240 | 0.0 | 0.0 | 0.00 | 0.00 | 0.00 | 63 | 1032.1 |
| 20260510113137 | 6 | 240 | 0.0 | 0.0 | 0.00 | 0.00 | 0.00 | 62 | 1031.8 |
| 20260510112612 | 6 | 240 | 0.0 | 0.0 | 0.00 | 0.00 | 0.00 | 62 | 1031.8 |
| 20260510112107 | 6 | 240 | 0.0 | 0.0 | 0.00 | 0.00 | 0.00 | 62 | 1031.7 |
| 20260510111604 | 6 | 240 | 0.0 | 0.0 | 0.00 | 0.00 | 0.00 | 62 | 1031.7 |
| 20260510111101 | 6 | 240 | 0.0 | 0.0 | 0.00 | 0.00 | 0.00 | 62 | 1031.7 |
| 20260510110552 | 6 | 240 | 0.0 | 0.0 | 0.00 | 0.00 | 0.00 | 61 | 1031.7 |
| 20260510110050 | 6 | 240 | 0.0 | 0.0 | 0.00 | 0.00 | 0.00 | 61 | 1031.7 |
| 20260510105520 | 6 | 240 | 0.0 | 0.0 | 0.00 | 0.00 | 0.00 | 61 | 1031.6 |
| 20260510104956 | 6 | 240 | 0.0 | 0.0 | 0.00 | 0.00 | 0.00 | 61 | 1031.4 |
| 20260510104430 | 6 | 240 | 0.0 | 0.0 | 0.00 | 0.00 | 0.00 | 60 | 1031.3 |
| 20260510103909 | 6 | 240 | 0.0 | 0.0 | 0.00 | 0.00 | 0.00 | 60 | 1031.4 |
| 20260510103404 | 6 | 240 | 0.0 | 0.0 | 0.00 | 0.00 | 0.00 | 60 | 1031.3 |
| 20260510102835 | 6 | 240 | 0.0 | 0.0 | 0.00 | 0.00 | 0.00 | 60 | 1031.3 |
| 20260510102336 | 6 | 240 | 0.0 | 0.0 | 0.00 | 0.00 | 0.00 | 60 | 1031.2 |
| 20260510101807 | 6 | 240 | 0.0 | 0.0 | 0.00 | 0.00 | 0.00 | 60 | 1031.2 |
| 20260510101306 | 6 | 240 | 0.0 | 0.0 | 0.00 | 0.00 | 0.00 | 60 | 1031.1 |
| 20260510100810 | 6 | 240 | 0.0 | 0.0 | 0.00 | 0.00 | 0.00 | 60 | 1030.9 |
| 20260510100501 | 6 | 240 | 0.0 | 0.0 | 0.00 | 0.00 | 0.00 | 59 | 1030.9 |
| 20260510095725 | 6 | 240 | 0.0 | 0.0 | 0.00 | 0.00 | 0.00 | 59 | 1030.8 |
| 20260510095223 | 6 | 240 | 0.0 | 0.0 | 0.00 | 0.00 | 0.00 | 59 | 1030.6 |
| 20260510094655 | 6 | 240 | 0.0 | 0.0 | 0.00 | 0.00 | 0.00 | 59 | 1030.6 |
| 20260510094154 | 6 | 240 | 0.0 | 0.0 | 0.00 | 0.00 | 0.00 | 59 | 1030.7 |
| 20260510093634 | 6 | 240 | 0.0 | 0.0 | 0.00 | 0.00 | 0.00 | 59 | 1030.6 |
| 20260510093133 | 6 | 240 | 0.0 | 0.0 | 0.00 | 0.00 | 0.00 | 58 | 1030.6 |
| 20260510092630 | 6 | 240 | 0.0 | 0.0 | 0.00 | 0.00 | 0.00 | 58 | 1030.5 |
| 20260510092625 | 6 | 240 | 0.0 | 0.0 | 0.00 | 0.00 | 0.00 | 58 | 1030.4 |
| 20260510092101 | 6 | 240 | 0.0 | 0.0 | 0.00 | 0.00 | 0.00 | 57 | 1030.5 |
| 20260510091034 | 6 | 240 | 0.0 | 0.0 | 0.00 | 0.00 | 0.00 | 57 | 1030.5 |
| 20260510090526 | 6 | 240 | 0.0 | 0.0 | 0.00 | 0.00 | 0.00 | 57 | 1030.4 |
| 20260510085954 | 6 | 240 | 0.0 | 0.0 | 0.00 | 0.00 | 0.00 | 56 | 1030.4 |
| 20260510085459 | 6 | 240 | 0.0 | 0.0 | 0.00 | 0.00 | 0.00 | 56 | 1030.2 |
| 20260510084930 | 6 | 240 | 0.0 | 0.0 | 0.00 | 0.00 | 0.00 | 56 | 1030.2 |
| 20260510084429 | 6 | 240 | 0.0 | 0.0 | 0.00 | 0.00 | 0.00 | 56 | 1030.2 |
| 20260510083902 | 6 | 240 | 0.0 | 0.0 | 0.00 | 0.00 | 0.00 | 56 | 1030.1 |
| 20260510083406 | 6 | 240 | 0.0 | 0.0 | 0.00 | 0.00 | 0.00 | 56 | 1030.0 |
| 20260510082858 | 6 | 240 | 0.0 | 0.0 | 0.00 | 0.00 | 0.00 | 56 | 1030.0 |
| 20260510082359 | 6 | 240 | 0.0 | 0.0 | 0.00 | 0.00 | 0.00 | 56 | 1029.9 |
| 20260510081829 | 6 | 240 | 0.0 | 0.0 | 0.00 | 0.00 | 0.00 | 56 | 1029.9 |
| 20260510081329 | 6 | 240 | 0.0 | 0.0 | 0.00 | 0.00 | 0.00 | 55 | 1029.8 |
| 20260510080809 | 7 | 240 | 0.0 | 0.0 | 0.00 | 0.00 | 0.00 | 55 | 1029.7 |
| 20260510080309 | 7 | 240 | 0.0 | 0.0 | 0.00 | 0.00 | 0.00 | 55 | 1029.7 |
| 20260510075812 | 7 | 240 | 0.0 | 0.0 | 0.00 | 0.00 | 0.00 | 55 | 1029.6 |
| 20260510075247 | 7 | 240 | 0.0 | 0.0 | 0.00 | 0.00 | 0.00 | 55 | 1029.6 |
| 20260510075241 | 7 | 240 | 0.0 | 0.0 | 0.00 | 0.00 | 0.00 | 55 | 1029.6 |
| 20260510074509 | 7 | 240 | 0.0 | 0.0 | 0.00 | 0.00 | 0.00 | 55 | 1029.6 |
| 20260510074005 | 7 | 240 | 0.0 | 0.0 | 0.00 | 0.00 | 0.00 | 55 | 1029.4 |
| 20260510073229 | 7 | 240 | 0.0 | 0.0 | 0.00 | 0.00 | 0.00 | 55 | 1029.6 |
| 20260510072719 | 7 | 240 | 0.0 | 0.0 | 0.00 | 0.00 | 0.00 | 55 | 1029.6 |
| 20260510072218 | 7 | 240 | 0.0 | 0.0 | 0.00 | 0.00 | 0.00 | 55 | 1029.6 |
| 20260510071713 | 7 | 240 | 0.0 | 0.0 | 0.00 | 0.00 | 0.00 | 55 | 1029.6 |
| 20260510071442 | 7 | 240 | 0.0 | 0.0 | 0.00 | 0.00 | 0.00 | 55 | 1029.6 |
| 20260510070715 | 7 | 240 | 0.0 | 0.0 | 0.00 | 0.00 | 0.00 | 55 | 1029.7 |
| 20260510070148 | 7 | 240 | 0.0 | 0.0 | 0.00 | 0.00 | 0.00 | 55 | 1029.7 |
| 20260510065649 | 7 | 240 | 0.0 | 0.0 | 0.00 | 0.00 | 0.00 | 55 | 1029.6 |
| 20260510065355 | 7 | 240 | 0.0 | 0.0 | 0.00 | 0.00 | 0.00 | 55 | 1029.7 |
| 20260510064559 | 7 | 240 | 0.0 | 0.0 | 0.00 | 0.00 | 0.00 | 54 | 1029.6 |
| 20260510064043 | 7 | 240 | 0.0 | 0.0 | 0.00 | 0.00 | 0.00 | 53 | 1029.6 |
| 20260510063542 | 8 | 240 | 0.0 | 0.0 | 0.00 | 0.00 | 0.00 | 53 | 1029.6 |
| 20260510063023 | 8 | 240 | 0.0 | 0.0 | 0.00 | 0.00 | 0.00 | 53 | 1029.4 |
| 20260510062528 | 8 | 240 | 0.0 | 0.0 | 0.00 | 0.00 | 0.00 | 53 | 1029.4 |
| 20260510062232 | 8 | 240 | 0.0 | 0.0 | 0.00 | 0.00 | 0.00 | 53 | 1029.4 |
| 20260510061433 | 8 | 240 | 0.0 | 0.0 | 0.00 | 0.00 | 0.00 | 53 | 1029.4 |
| 20260510061203 | 8 | 240 | 0.0 | 0.0 | 0.00 | 0.00 | 0.00 | 53 | 1029.4 |
| 20260510060427 | 8 | 240 | 0.0 | 0.0 | 0.00 | 0.00 | 0.00 | 53 | 1029.4 |
| 20260510055923 | 8 | 240 | 0.0 | 0.0 | 0.00 | 0.00 | 0.00 | 52 | 1029.4 |
| 20260510055402 | 8 | 240 | 0.0 | 0.0 | 0.00 | 0.00 | 0.00 | 51 | 1029.6 |
| 20260510054900 | 8 | 240 | 0.0 | 0.0 | 0.00 | 0.00 | 0.00 | 52 | 1029.4 |
| 20260510054334 | 8 | 240 | 0.0 | 0.0 | 0.00 | 0.00 | 0.00 | 51 | 1029.2 |
| 20260510053805 | 8 | 240 | 0.0 | 0.0 | 0.00 | 0.00 | 0.00 | 51 | 1029.2 |
| 20260510053304 | 8 | 240 | 0.0 | 0.0 | 0.00 | 0.00 | 0.00 | 51 | 1029.2 |
| 20260510052745 | 8 | 240 | 0.0 | 0.0 | 0.00 | 0.00 | 0.00 | 51 | 1029.1 |
| 20260510052521 | 8 | 240 | 0.0 | 0.0 | 0.00 | 0.00 | 0.00 | 52 | 1029.1 |
| 20260510051721 | 8 | 240 | 0.0 | 0.0 | 0.00 | 0.00 | 0.00 | 51 | 1029.0 |
| 20260510051450 | 8 | 240 | 0.0 | 0.0 | 0.00 | 0.00 | 0.00 | 51 | 1029.0 |
| 20260510050654 | 8 | 240 | 0.0 | 0.0 | 0.00 | 0.00 | 0.00 | 50 | 1029.0 |
| 20260510050125 | 8 | 240 | 0.0 | 0.0 | 0.00 | 0.00 | 0.00 | 49 | 1029.0 |
| 20260510045559 | 8 | 240 | 0.0 | 0.0 | 0.00 | 0.00 | 0.00 | 49 | 1029.1 |
| 20260510045048 | 8 | 240 | 0.0 | 0.0 | 0.00 | 0.00 | 0.00 | 49 | 1029.1 |
| 20260510044522 | 8 | 240 | 0.0 | 0.0 | 0.00 | 0.00 | 0.00 | 49 | 1029.1 |
| 20260510044253 | 8 | 240 | 0.0 | 0.0 | 0.00 | 0.00 | 0.00 | 49 | 1029.1 |
| 20260510043521 | 8 | 240 | 0.0 | 0.0 | 0.00 | 0.00 | 0.00 | 48 | 1029.1 |
| 20260510043020 | 9 | 240 | 0.0 | 0.0 | 0.00 | 0.00 | 0.00 | 49 | 1029.1 |
| 20260510042750 | 9 | 240 | 0.0 | 0.0 | 0.00 | 0.00 | 0.00 | 47 | 1029.0 |
| 20260510042019 | 9 | 240 | 0.0 | 0.0 | 0.00 | 0.00 | 0.00 | 47 | 1028.9 |
| 20260510041517 | 9 | 240 | 0.0 | 0.0 | 0.00 | 0.00 | 0.00 | 47 | 1028.8 |
| 20260510041016 | 9 | 240 | 0.0 | 0.0 | 0.00 | 0.00 | 0.00 | 47 | 1028.8 |
| 20260510040458 | 9 | 240 | 0.0 | 0.0 | 0.00 | 0.00 | 0.00 | 47 | 1028.8 |
| 20260510040003 | 10 | 240 | 0.0 | 0.0 | 0.00 | 0.00 | 0.00 | 46 | 1028.7 |
| 20260510035433 | 10 | 240 | 0.0 | 0.0 | 0.00 | 0.00 | 0.00 | 46 | 1028.7 |
| 20260510034936 | 10 | 240 | 0.0 | 0.0 | 0.00 | 0.00 | 0.00 | 46 | 1028.6 |
| 20260510034638 | 10 | 240 | 0.0 | 0.0 | 0.00 | 0.00 | 0.00 | 45 | 1028.5 |
| 20260510033906 | 10 | 240 | 0.0 | 0.0 | 0.00 | 0.00 | 0.00 | 45 | 1028.5 |
| 20260510033401 | 10 | 240 | 0.0 | 0.0 | 0.00 | 0.00 | 0.00 | 44 | 1028.4 |
| 20260510032900 | 10 | 244 | 0.0 | 0.0 | 0.00 | 0.00 | 0.00 | 44 | 1028.3 |
| 20260510032342 | 10 | 244 | 0.0 | 0.0 | 0.00 | 0.00 | 0.00 | 43 | 1028.3 |
| 20260510031843 | 10 | 244 | 0.0 | 0.0 | 0.00 | 0.00 | 0.00 | 43 | 1028.2 |
| 20260510031317 | 10 | 244 | 0.0 | 0.0 | 0.00 | 0.00 | 0.00 | 43 | 1028.2 |
| 20260510030816 | 10 | 244 | 0.0 | 0.0 | 0.00 | 0.00 | 0.00 | 43 | 1028.1 |
| 20260510030558 | 10 | 244 | 0.0 | 0.0 | 0.00 | 0.00 | 0.00 | 43 | 1028.0 |
| 20260510030016 | 11 | 244 | 0.0 | 0.0 | 0.00 | 0.00 | 0.00 | 42 | 1027.9 |
| 20260510025242 | 11 | 244 | 0.0 | 0.0 | 0.00 | 0.00 | 0.00 | 42 | 1027.9 |
| 20260510024731 | 11 | 211 | 0.0 | 0.0 | 0.00 | 0.00 | 0.00 | 42 | 1027.9 |
| 20260510024229 | 11 | 213 | 0.0 | 0.0 | 0.00 | 0.00 | 0.00 | 41 | 1027.8 |
| 20260510023726 | 11 | 213 | 0.0 | 0.0 | 0.00 | 0.00 | 0.00 | 41 | 1027.6 |
| 20260510023223 | 11 | 213 | 0.0 | 0.0 | 0.00 | 0.00 | 0.00 | 40 | 1027.5 |
| 20260510022720 | 11 | 212 | 0.0 | 0.0 | 0.00 | 0.00 | 0.00 | 40 | 1027.3 |
| 20260510022220 | 11 | 212 | 0.0 | 0.0 | 0.00 | 0.00 | 0.00 | 40 | 1027.2 |
| 20260510021707 | 11 | 212 | 0.0 | 0.0 | 0.00 | 0.00 | 0.00 | 39 | 1027.0 |
| 20260510021434 | 11 | 212 | 0.0 | 0.0 | 0.00 | 0.00 | 0.00 | 39 | 1026.9 |
| 20260510020701 | 11 | 212 | 0.0 | 0.0 | 0.00 | 0.00 | 0.00 | 38 | 1026.8 |
| 20260510020200 | 12 | 212 | 0.0 | 0.0 | 0.00 | 0.00 | 0.00 | 38 | 1026.7 |
| 20260510015655 | 12 | 214 | 0.0 | 0.0 | 0.00 | 0.00 | 0.00 | 38 | 1026.6 |
| 20260510015154 | 12 | 214 | 0.0 | 0.0 | 0.00 | 0.00 | 0.00 | 38 | 1026.4 |
| 20260510014636 | 12 | 214 | 0.0 | 0.0 | 0.00 | 0.00 | 0.00 | 38 | 1026.3 |
| 20260510014141 | 12 | 214 | 0.0 | 0.0 | 0.00 | 0.00 | 0.00 | 37 | 1026.3 |
| 20260510013615 | 12 | 214 | 0.0 | 0.0 | 0.00 | 0.00 | 0.00 | 36 | 1026.2 |
| 20260510013050 | 12 | 214 | 0.0 | 0.0 | 0.00 | 0.00 | 0.00 | 37 | 1026.1 |
| 20260510012537 | 12 | 214 | 0.0 | 0.0 | 0.00 | 0.00 | 0.00 | 36 | 1026.1 |
| 20260510012036 | 13 | 214 | 0.0 | 0.0 | 0.00 | 0.00 | 0.00 | 36 | 1026.0 |
| 20260510011517 | 13 | 213 | 0.0 | 0.0 | 0.00 | 0.00 | 0.00 | 35 | 1025.9 |
| 20260510010940 | 13 | 214 | 0.0 | 0.0 | 0.00 | 0.00 | 0.00 | 35 | 1025.8 |
| 20260510010412 | 13 | 214 | 0.0 | 1.6 | 0.00 | 0.00 | 0.00 | 34 | 1025.7 |
| 20260510005913 | 13 | 213 | 0.0 | 1.6 | 0.00 | 0.00 | 0.00 | 33 | 1025.6 |
| 20260510005353 | 13 | 69 | 0.0 | 4.8 | 0.00 | 0.00 | 0.00 | 34 | 1025.6 |
| 20260510005126 | 13 | 236 | 0.0 | 1.6 | 0.00 | 0.00 | 0.00 | 33 | 1025.5 |
| 20260510004339 | 13 | 248 | 0.0 | 4.8 | 0.00 | 0.00 | 0.00 | 32 | 1025.4 |
| 20260510003838 | 13 | 236 | 0.0 | 4.8 | 0.00 | 0.00 | 0.00 | 32 | 1025.4 |
| 20260510003821 | 14 | 150 | 0.0 | 1.6 | 0.00 | 0.00 | 0.00 | 31 | 1025.4 |
| 20260510002820 | 14 | 320 | 0.0 | 0.0 | 0.00 | 0.00 | 0.00 | 31 | 1025.3 |
| 20260510002253 | 14 | 260 | 0.0 | 1.6 | 0.00 | 0.00 | 0.00 | 32 | 1025.2 |
| 20260510001756 | 14 | 300 | 0.0 | 11.3 | 0.00 | 0.00 | 0.00 | 32 | 1025.2 |
| 20260510001247 | 15 | 270 | 0.0 | 11.3 | 0.00 | 0.00 | 0.00 | 31 | 1025.1 |
| 20260510000750 | 15 | 298 | 0.0 | 11.3 | 0.00 | 0.00 | 0.00 | 31 | 1025.2 |
| 20260510000235 | 15 | 288 | 0.0 | 11.3 | 0.00 | 0.00 | 0.00 | 30 | 1025.0 |
| 20260510000002 | 15 | 232 | 0.0 | 8.0 | 0.00 | 0.00 | 0.00 | 30 | 1024.9 |
| 20260509235215 | 15 | 178 | 0.0 | 8.0 | 0.00 | 0.00 | 0.00 | 30 | 1024.9 |
| 20260509235156 | 15 | 251 | 0.0 | 4.8 | 0.00 | 0.00 | 0.00 | 30 | 1024.9 |
| 20260509234141 | 15 | 243 | 0.0 | 6.4 | 0.00 | 0.00 | 0.00 | 29 | 1024.8 |
| 20260509233602 | 15 | 302 | 0.0 | 6.4 | 0.00 | 0.00 | 0.00 | 30 | 1024.8 |
| 20260509233312 | 15 | 304 | 0.0 | 8.0 | 0.00 | 0.00 | 0.00 | 30 | 1024.5 |
| 20260509232524 | 15 | 232 | 0.0 | 8.0 | 0.00 | 0.00 | 0.00 | 29 | 1024.5 |
| 20260509232023 | 16 | 228 | 0.0 | 6.4 | 0.00 | 0.00 | 0.00 | 28 | 1024.5 |
| 20260509231452 | 16 | 17 | 0.0 | 3.2 | 0.00 | 0.00 | 0.00 | 28 | 1024.5 |
| 20260509230945 | 16 | 5 | 0.0 | 3.2 | 0.00 | 0.00 | 0.00 | 27 | 1024.4 |
| 20260509230443 | 17 | 30 | 0.0 | 3.2 | 0.00 | 0.00 | 0.00 | 28 | 1024.3 |
| 20260509225940 | 17 | 313 | 0.0 | 8.0 | 0.00 | 0.00 | 0.00 | 28 | 1024.3 |
| 20260509225441 | 17 | 315 | 0.0 | 8.0 | 0.00 | 0.00 | 0.00 | 27 | 1024.2 |
| 20260509224939 | 17 | 223 | 0.0 | 0.0 | 0.00 | 0.00 | 0.00 | 27 | 1024.1 |
| 20260509224708 | 17 | 15 | 0.0 | 0.0 | 0.00 | 0.00 | 0.00 | 28 | 1024.1 |
| 20260509223939 | 17 | 267 | 0.0 | 0.0 | 0.00 | 0.00 | 0.00 | 26 | 1023.9 |
| 20260509223318 | 17 | 350 | 0.0 | 6.4 | 0.00 | 0.00 | 0.00 | 27 | 1023.9 |
| 20260509222820 | 17 | 9 | 0.0 | 6.4 | 0.00 | 0.00 | 0.00 | 26 | 1023.9 |
| 20260509222253 | 17 | 0 | 0.0 | 6.4 | 0.00 | 0.00 | 0.00 | 27 | 1024.0 |
| 20260509221735 | 18 | 338 | 0.0 | 3.2 | 0.00 | 0.00 | 0.00 | 25 | 1023.9 |
| 20260509221234 | 18 | 317 | 0.0 | 1.6 | 0.00 | 0.00 | 0.00 | 26 | 1023.8 |
| 20260509220733 | 18 | 181 | 0.0 | 1.6 | 0.00 | 0.00 | 0.00 | 25 | 1023.8 |
| 20260509220230 | 18 | 261 | 0.0 | 1.6 | 0.00 | 0.00 | 0.00 | 26 | 1023.7 |
| 20260509215727 | 18 | 157 | 0.0 | 11.3 | 0.00 | 0.00 | 0.00 | 27 | 1023.8 |
| 20260509215227 | 18 | 243 | 0.0 | 11.3 | 0.00 | 0.00 | 0.00 | 26 | 1023.7 |
| 20260509214723 | 18 | 65 | 0.0 | 1.6 | 0.00 | 0.00 | 0.00 | 25 | 1023.7 |
| 20260509214223 | 18 | 351 | 0.0 | 0.0 | 0.00 | 0.00 | 0.00 | 27 | 1023.8 |
| 20260509213722 | 18 | 307 | 0.0 | 1.6 | 0.00 | 0.00 | 0.00 | 26 | 1023.8 |
| 20260509213458 | 18 | 65 | 0.0 | 0.0 | 0.00 | 0.00 | 0.00 | 27 | 1023.7 |
| 20260509212658 | 18 | 0 | 0.0 | 8.0 | 0.00 | 0.00 | 0.00 | 26 | 1023.6 |
| 20260509212130 | 18 | 15 | 0.0 | 8.0 | 0.00 | 0.00 | 0.00 | 25 | 1023.6 |
| 20260509211629 | 18 | 335 | 0.0 | 4.8 | 0.00 | 0.00 | 0.00 | 27 | 1023.5 |
| 20260509211104 | 18 | 308 | 0.0 | 3.2 | 0.00 | 0.00 | 0.00 | 26 | 1023.6 |
| 20260509210817 | 18 | 241 | 0.0 | 4.8 | 0.00 | 0.00 | 0.00 | 26 | 1023.5 |
| 20260509210319 | 18 | 263 | 0.0 | 4.8 | 0.00 | 0.00 | 0.00 | 26 | 1023.4 |
| 20260509205547 | 18 | 105 | 0.0 | 3.2 | 0.00 | 0.00 | 0.00 | 26 | 1023.5 |
| 20260509205018 | 18 | 20 | 0.0 | 4.8 | 0.00 | 0.00 | 0.00 | 27 | 1023.4 |
| 20260509204515 | 18 | 233 | 0.0 | 9.7 | 0.00 | 0.00 | 0.00 | 26 | 1023.5 |
| 20260509204015 | 18 | 338 | 0.0 | 9.7 | 0.00 | 0.00 | 0.00 | 27 | 1023.4 |
| 20260509203446 | 18 | 273 | 0.0 | 4.8 | 0.00 | 0.00 | 0.00 | 27 | 1023.4 |
| 20260509202932 | 18 | 311 | 0.0 | 4.8 | 0.00 | 0.00 | 0.00 | 26 | 1023.4 |
| 20260509202428 | 18 | 306 | 0.0 | 3.2 | 0.00 | 0.00 | 0.00 | 27 | 1023.4 |
| 20260509201905 | 18 | 307 | 0.0 | 6.4 | 0.00 | 0.00 | 0.00 | 27 | 1023.3 |
| 20260509201336 | 18 | 55 | 0.0 | 6.4 | 0.00 | 0.00 | 0.00 | 29 | 1023.2 |
| 20260509200832 | 18 | 296 | 0.0 | 0.0 | 0.00 | 0.00 | 0.00 | 30 | 1023.2 |
| 20260509200810 | 18 | 197 | 0.0 | 1.6 | 0.00 | 0.00 | 0.00 | 30 | 1023.2 |
| 20260509195808 | 18 | 92 | 0.0 | 1.6 | 0.00 | 0.00 | 0.00 | 30 | 1023.1 |
| 20260509195306 | 18 | 40 | 0.0 | 9.7 | 0.00 | 0.00 | 0.00 | 28 | 1023.2 |
| 20260509194805 | 18 | 292 | 0.0 | 9.7 | 0.00 | 0.00 | 0.00 | 26 | 1023.0 |
| 20260509194532 | 18 | 306 | 0.0 | 4.8 | 0.00 | 0.00 | 0.00 | 29 | 1023.1 |
| 20260509193759 | 17 | 346 | 0.0 | 4.8 | 0.00 | 0.00 | 0.00 | 28 | 1022.9 |
| 20260509193233 | 18 | 32 | 0.0 | 4.8 | 0.00 | 0.00 | 0.00 | 29 | 1022.9 |
| 20260509192733 | 18 | 87 | 0.0 | 1.6 | 0.00 | 0.00 | 0.00 | 27 | 1022.9 |
| 20260509192204 | 18 | 287 | 0.0 | 16.1 | 0.00 | 0.00 | 0.00 | 27 | 1022.9 |
| 20260509191702 | 18 | 250 | 0.0 | 16.1 | 0.00 | 0.00 | 0.00 | 28 | 1022.8 |
| 20260509191134 | 18 | 254 | 0.0 | 3.2 | 0.00 | 0.00 | 0.00 | 30 | 1022.7 |
| 20260509190630 | 18 | 13 | 0.0 | 1.6 | 0.00 | 0.00 | 0.00 | 32 | 1022.9 |
| 20260509190104 | 18 | 282 | 0.0 | 6.4 | 0.00 | 0.00 | 0.00 | 31 | 1022.8 |
| 20260509185829 | 17 | 333 | 0.0 | 6.4 | 0.00 | 0.00 | 0.00 | 32 | 1022.7 |
| 20260509185031 | 17 | 336 | 0.0 | 6.4 | 0.00 | 0.00 | 0.00 | 34 | 1022.5 |
| 20260509184504 | 18 | 46 | 0.0 | 12.9 | 0.00 | 0.00 | 0.00 | 31 | 1022.5 |
| 20260509183936 | 17 | 24 | 0.0 | 12.9 | 0.00 | 0.00 | 0.00 | 33 | 1022.5 |
| 20260509183434 | 18 | 329 | 0.0 | 1.6 | 0.00 | 0.00 | 0.00 | 31 | 1022.5 |
| 20260509183149 | 18 | 301 | 0.0 | 1.6 | 0.00 | 0.00 | 0.00 | 30 | 1022.5 |
| 20260509182419 | 18 | 217 | 0.0 | 3.2 | 0.00 | 0.00 | 0.00 | 31 | 1022.4 |
| 20260509181914 | 17 | 252 | 0.0 | 3.2 | 0.00 | 0.00 | 0.00 | 31 | 1022.4 |
| 20260509181414 | 17 | 108 | 0.0 | 9.7 | 0.00 | 0.00 | 0.00 | 34 | 1022.2 |
| 20260509180908 | 17 | 81 | 0.0 | 9.7 | 0.00 | 0.00 | 0.00 | 33 | 1022.2 |
| 20260509180406 | 17 | 316 | 0.0 | 1.6 | 0.00 | 0.00 | 0.00 | 37 | 1022.1 |
| 20260509175853 | 17 | 340 | 0.0 | 12.9 | 0.00 | 0.00 | 0.00 | 37 | 1022.1 |
| 20260509175353 | 17 | 0 | 0.0 | 12.9 | 0.00 | 0.00 | 0.00 | 35 | 1022.1 |
| 20260509175100 | 17 | 325 | 0.0 | 8.0 | 0.00 | 0.00 | 0.00 | 37 | 1022.0 |